Location: ČR
(50.0000°N, 15.0000°E)
Time: 08:14:44
(UTC+02:00)

A-11 Canister half - Pass Details

Date: 17 March 2026
Orbit: 1514 x 1685 km, 47.2° (Epoch: 18 April)

Event Time Altitude Azimuth Distance (km) Brightness Sun altitude
Rises 15:13:56 0° 251° (WSW) 4,855 12.8 25.3°
Reaches altitude 10° 15:17:02 10° 249° (WSW) 3,889 12.7 24.9°
Maximum altitude 15:26:59 73° 168° (SSE) 1,743 9.8 23.6°
Drops below altitude 10° 15:37:07 10° 86° (E) 3,951 10.7 22.2°
Sets 15:40:17 0° 85° (E) 4,937 11.1 21.8°
